Flag for U.S.A. Weather past 2 weeks in Santa Rosa, California, U.S.A.

Now
70 °F

Passing clouds.


Feels Like: 76 °F
Forecast: 49 / 73 °F
Wind: 10 mph from Southeast

Location: Santa Rosa Sonoma County Airport

Current Time: Mar 27, 2015 at 4:10:27 PM

Latest Report: Mar 27, 2015 at 2:53 PM


Visibility: 10 mi

Pressure: 30.09 "Hg

Humidity: 59%

Dew point: 55 °F

Location of Santa RosaLocation

Historic Weather in Santa Rosa — Graph

°F

Santa Rosa temperature yesterday

Maximum temperature yesterday: 83 °F (at 3:53 PM)
Minimum temperature yesterday: 45 °F (at 7:01 AM)
Average temperature yesterday: 62 °F

Past Weeks' High & Low Weather Summary

 TemperatureHumidityPressure
High83 °F (Mar 26, 3:53 PM)100% (Mar 17, 6:53 AM)30.28 "Hg (Mar 17, 6:53 AM)
Low41 °F (Mar 19, 6:53 AM)28% (Mar 20, 3:53 PM)29.93 "Hg (Mar 14, 6:53 PM)
Average58 °F74%30.09 "Hg
* Reported Mar 12 2:53 PM — Mar 27 2:53 PM, Santa Rosa, Weather by CustomWeather, © 2015

Note: Actual official high and low records may vary slightly from our data, if they occured in-between our weather recording intervals... More about our weather records

Advertising

Santa Rosa weather history for previous 24 hours

 ConditionsComfort  
Time TempWeatherWind HumidityBarometerVisibility
2:53 PM
Fri, Mar 27
70 °FPassing clouds.10 mph59%30.09 "Hg10 mi
1:53 PM69 °FPassing clouds.9 mph61%30.10 "Hg10 mi
12:53 PM66 °FPassing clouds.9 mph65%30.12 "Hg10 mi
11:53 AM62 °FPassing clouds.7 mph73%30.14 "Hg10 mi
10:53 AM59 °FScattered clouds.7 mph78%30.14 "Hg10 mi
9:55 AM52 °FFog.5 mph94%30.15 "Hg3 mi
8:53 AM50 °FFog.5 mph96%30.12 "Hg1 mi
7:53 AM48 °FFog.No wind100%30.10 "Hg0 mi
6:53 AM47 °FFog.No wind100%30.08 "Hg0 mi
6:00 AM46 °FFog.No wind100%30.09 "Hg2 mi
4:53 AM49 °FClear.No wind93%30.07 "Hg10 mi
3:53 AM49 °FClear.3 mph93%30.06 "Hg10 mi
2:53 AM50 °FClear.5 mph93%30.07 "Hg10 mi
1:53 AM52 °FClear.No wind89%30.07 "Hg10 mi
12:53 AM55 °FClear.3 mph87%30.07 "Hg10 mi
11:53 PM
Thu, Mar 26
58 °FClear.No wind81%30.07 "Hg10 mi
10:53 PM61 °FClear.No wind72%30.07 "Hg10 mi
9:53 PM60 °FClear.No wind78%30.06 "Hg10 mi
8:53 PM65 °FClear.3 mph68%30.05 "Hg10 mi
7:53 PM71 °FSunny.No wind45%30.03 "Hg10 mi
6:53 PM77 °FSunny.3 mph36%30.03 "Hg10 mi
5:53 PM80 °FSunny.8 mph35%30.03 "Hg10 mi
4:53 PM81 °FSunny.10 mph44%30.03 "Hg10 mi
Weather by CustomWeather, © 2015

See weather overviewHow to use our weather pages